| time (UTC) | temp F | wind direction | speed MPH | gust MPH | rain 1hr in | rain 24hr in | rain mn in | humidity % | barometer mb |
| 20260502130746 | 48 | 0 | 0.0 | 0.0 | 0.00 | 0.00 | 0.24 | 97 | 1012.0 |
| 20260502130246 | 48 | 0 | 0.0 | 0.0 | 0.00 | 0.00 | 0.25 | 97 | 1012.0 |
| 20260502123746 | 47 | 0 | 0.0 | 0.0 | 0.00 | 0.00 | 0.25 | 99 | 1012.0 |
| 20260502123246 | 47 | 136 | 0.0 | 2.0 | 0.00 | 0.00 | 0.25 | 100 | 1012.0 |
| 20260502122746 | 46 | 208 | 0.0 | 1.0 | 0.00 | 0.00 | 0.25 | 100 | 1012.0 |
| 20260502122247 | 46 | 125 | 0.0 | 1.0 | 0.00 | 0.00 | 0.26 | 100 | 1012.0 |
| 20260502121748 | 46 | 0 | 0.0 | 0.0 | 0.00 | 0.00 | 0.26 | 100 | 1012.0 |
| 20260502121246 | 46 | 162 | 1.0 | 2.0 | 0.00 | 0.00 | 0.26 | 99 | 1012.0 |
| 20260502120746 | 46 | 137 | 1.0 | 2.0 | 0.00 | 0.00 | 0.26 | 99 | 1012.0 |
| 20260502120246 | 46 | 0 | 0.0 | 0.0 | 0.02 | 0.00 | 0.25 | 99 | 1012.0 |
| 20260502115747 | 45 | 52 | 0.0 | 2.0 | 0.02 | 0.00 | 0.25 | 99 | 1012.0 |
| 20260502115246 | 45 | 120 | 0.0 | 2.0 | 0.07 | 0.00 | 0.24 | 99 | 1012.0 |
| 20260502114746 | 45 | 0 | 0.0 | 0.0 | 0.11 | 0.00 | 0.23 | 99 | 1012.0 |
| 20260502114246 | 45 | 0 | 0.0 | 0.0 | 0.01 | 0.00 | 0.23 | 99 | 1012.0 |
| 20260502113746 | 45 | 0 | 0.0 | 0.0 | 0.05 | 0.00 | 0.23 | 99 | 1012.0 |
| 20260502113246 | 45 | 0 | 0.0 | 0.0 | 0.21 | 0.00 | 0.23 | 99 | 1012.0 |
| 20260502112748 | 45 | 0 | 0.0 | 0.0 | 0.27 | 0.00 | 0.20 | 99 | 1012.0 |
| 20260502112246 | 45 | 0 | 0.0 | 0.0 | 0.09 | 0.00 | 0.19 | 99 | 1012.0 |
| 20260502111747 | 45 | 0 | 0.0 | 0.0 | 0.14 | 0.00 | 0.18 | 99 | 1012.0 |
| 20260502111247 | 45 | 0 | 0.0 | 0.0 | 0.03 | 0.00 | 0.18 | 99 | 1012.0 |
| 20260502110746 | 45 | 0 | 0.0 | 0.0 | 0.05 | 0.00 | 0.17 | 99 | 1012.0 |
| 20260502110246 | 45 | 0 | 0.0 | 0.0 | 0.01 | 0.00 | 0.17 | 99 | 1012.0 |
| 20260502105746 | 45 | 0 | 0.0 | 0.0 | 0.01 | 0.00 | 0.16 | 99 | 1012.0 |
| 20260502105248 | 45 | 0 | 0.0 | 0.0 | 0.00 | 0.00 | 0.16 | 99 | 1012.0 |
| 20260502104747 | 45 | 0 | 0.0 | 0.0 | 0.11 | 0.00 | 0.17 | 99 | 1012.0 |
| 20260502104246 | 45 | 0 | 0.0 | 0.0 | 0.27 | 0.00 | 0.15 | 99 | 1013.0 |
| 20260502103747 | 45 | 0 | 0.0 | 0.0 | 0.11 | 0.00 | 0.13 | 99 | 1013.0 |
| 20260502103246 | 45 | 243 | 0.0 | 2.0 | 0.21 | 0.00 | 0.12 | 99 | 1012.0 |
| 20260502102746 | 45 | 256 | 1.0 | 2.0 | 0.00 | 0.00 | 0.11 | 99 | 1012.0 |
| 20260502102246 | 44 | 231 | 0.0 | 1.0 | 0.02 | 0.00 | 0.11 | 99 | 1012.0 |
| 20260502101746 | 44 | 0 | 0.0 | 0.0 | 0.00 | 0.00 | 0.10 | 100 | 1011.0 |
| 20260502101246 | 44 | 0 | 0.0 | 0.0 | 0.00 | 0.00 | 0.10 | 100 | 1011.0 |
| 20260502100746 | 44 | 0 | 0.0 | 0.0 | 0.02 | 0.00 | 0.10 | 100 | 1011.0 |
| 20260502100246 | 44 | 0 | 0.0 | 0.0 | 0.00 | 0.00 | 0.10 | 100 | 1011.0 |
| 20260502091246 | 45 | 0 | 0.0 | 0.0 | 0.00 | 0.00 | 0.11 | 99 | 1011.0 |
| 20260502090748 | 45 | 0 | 0.0 | 0.0 | 0.00 | 0.00 | 0.11 | 99 | 1011.0 |
| 20260502090251 | 45 | 0 | 0.0 | 0.0 | 0.00 | 0.00 | 0.10 | 99 | 1011.0 |
| 20260502071248 | 45 | 252 | 1.0 | 2.0 | 0.06 | 0.00 | 0.03 | 95 | 1012.0 |
| 20260502070746 | 45 | 226 | 0.0 | 1.0 | 0.02 | 0.00 | 0.03 | 96 | 1011.0 |
| 20260502070246 | 45 | 0 | 0.0 | 0.0 | 0.01 | 0.00 | 0.02 | 95 | 1011.0 |
| 20260502065746 | 45 | 0 | 0.0 | 0.0 | 0.03 | 0.00 | 0.02 | 94 | 1011.0 |
| 20260502065247 | 45 | 148 | 0.0 | 1.0 | 0.00 | 0.00 | 0.02 | 95 | 1011.0 |
| 20260502064747 | 45 | 0 | 0.0 | 0.0 | 0.00 | 0.00 | 0.02 | 95 | 1011.0 |
| 20260502064246 | 45 | 0 | 0.0 | 0.0 | 0.00 | 0.00 | 0.02 | 94 | 1011.0 |
| 20260502063746 | 45 | 0 | 0.0 | 0.0 | 0.00 | 0.00 | 0.02 | 94 | 1011.0 |
| 20260502063246 | 45 | 0 | 0.0 | 0.0 | 0.00 | 0.00 | 0.02 | 93 | 1011.0 |
| 20260502062747 | 46 | 0 | 0.0 | 0.0 | 0.00 | 0.00 | 0.02 | 92 | 1011.0 |
| 20260502062246 | 46 | 319 | 0.0 | 2.0 | 0.01 | 0.00 | 0.02 | 91 | 1011.0 |
| 20260502061747 | 46 | 0 | 0.0 | 0.0 | 0.00 | 0.00 | 0.01 | 89 | 1012.0 |
| 20260502061246 | 46 | 0 | 0.0 | 0.0 | 0.02 | 0.00 | 0.01 | 88 | 1012.0 |
| 20260502060746 | 46 | 0 | 0.0 | 0.0 | 0.14 | 0.00 | 0.00 | 86 | 1012.0 |
| 20260502060246 | 46 | 0 | 0.0 | 0.0 | 0.00 | 0.00 | 0.00 | 87 | 1012.0 |
| 20260502055748 | 46 | 0 | 0.0 | 0.0 | 0.00 | 0.00 | 0.00 | 85 | 1012.0 |
| 20260502055246 | 46 | 225 | 2.0 | 2.0 | 0.00 | 0.00 | 0.00 | 83 | 1012.0 |
| 20260502054746 | 47 | 0 | 0.0 | 0.0 | 0.00 | 0.00 | 0.00 | 83 | 1011.0 |
| 20260502054246 | 47 | 149 | 1.0 | 2.0 | 0.00 | 0.00 | 0.00 | 83 | 1011.0 |
| 20260502053747 | 47 | 0 | 0.0 | 0.0 | 0.00 | 0.00 | 0.00 | 81 | 1012.0 |
| 20260502053247 | 48 | 0 | 0.0 | 0.0 | 0.00 | 0.00 | 0.00 | 77 | 1012.0 |
| 20260502052747 | 48 | 222 | 1.0 | 2.0 | 0.00 | 0.00 | 0.00 | 75 | 1012.0 |
| 20260502052246 | 48 | 348 | 0.0 | 1.0 | 0.00 | 0.00 | 0.00 | 70 | 1012.0 |
| 20260502051746 | 48 | 0 | 0.0 | 0.0 | 0.00 | 0.00 | 0.00 | 75 | 1012.0 |
| 20260502051247 | 47 | 0 | 0.0 | 0.0 | 0.00 | 0.00 | 0.00 | 73 | 1012.0 |
| 20260502050746 | 47 | 0 | 0.0 | 0.0 | 0.00 | 0.00 | 0.00 | 76 | 1012.0 |
| 20260502050246 | 47 | 0 | 0.0 | 0.0 | 0.00 | 0.00 | 0.00 | 76 | 1012.0 |
| 20260502045746 | 47 | 0 | 0.0 | 0.0 | 0.00 | 0.00 | 0.00 | 77 | 1012.0 |
| 20260502045246 | 47 | 0 | 0.0 | 0.0 | 0.00 | 0.00 | 0.00 | 78 | 1012.0 |
| 20260502044746 | 47 | 0 | 0.0 | 0.0 | 0.00 | 0.00 | 0.00 | 76 | 1012.0 |
| 20260502044246 | 47 | 0 | 0.0 | 0.0 | 0.00 | 0.00 | 0.00 | 76 | 1011.0 |
| 20260502043747 | 47 | 108 | 0.0 | 1.0 | 0.00 | 0.00 | 0.00 | 73 | 1011.0 |
| 20260502043246 | 47 | 0 | 0.0 | 0.0 | 0.00 | 0.00 | 0.00 | 72 | 1011.0 |
| 20260502042746 | 47 | 0 | 0.0 | 0.0 | 0.00 | 0.00 | 0.00 | 72 | 1011.0 |
| 20260502042246 | 47 | 0 | 0.0 | 0.0 | 0.00 | 0.00 | 0.00 | 71 | 1011.0 |
| 20260502041746 | 47 | 0 | 0.0 | 0.0 | 0.00 | 0.00 | 0.00 | 71 | 1011.0 |
| 20260502041246 | 47 | 0 | 0.0 | 0.0 | 0.00 | 0.00 | 0.00 | 74 | 1012.0 |
| 20260502040746 | 47 | 0 | 0.0 | 0.0 | 0.00 | 0.00 | 0.00 | 75 | 1012.0 |
| 20260502040247 | 47 | 0 | 0.0 | 0.0 | 0.00 | 0.00 | 0.00 | 74 | 1012.0 |
| 20260502035746 | 47 | 0 | 0.0 | 0.0 | 0.00 | 0.00 | 0.00 | 74 | 1012.0 |
| 20260502035246 | 47 | 0 | 0.0 | 0.0 | 0.00 | 0.00 | 0.00 | 73 | 1012.0 |
| 20260502034747 | 47 | 0 | 0.0 | 0.0 | 0.00 | 0.00 | 0.00 | 74 | 1012.0 |
| 20260502034247 | 48 | 0 | 0.0 | 0.0 | 0.00 | 0.00 | 0.00 | 73 | 1012.0 |
| 20260502033746 | 48 | 78 | 0.0 | 1.0 | 0.00 | 0.00 | 0.00 | 68 | 1012.0 |
| 20260502033246 | 48 | 0 | 0.0 | 0.0 | 0.00 | 0.00 | 0.00 | 67 | 1012.0 |
| 20260502032746 | 48 | 0 | 0.0 | 0.0 | 0.00 | 0.00 | 0.00 | 66 | 1012.0 |
| 20260502032247 | 48 | 0 | 0.0 | 0.0 | 0.00 | 0.00 | 0.00 | 66 | 1012.0 |
| 20260502031747 | 48 | 0 | 0.0 | 0.0 | 0.00 | 0.00 | 0.00 | 65 | 1012.0 |
| 20260502031246 | 48 | 0 | 0.0 | 0.0 | 0.00 | 0.00 | 0.00 | 65 | 1012.0 |
| 20260502030746 | 48 | 0 | 0.0 | 0.0 | 0.00 | 0.00 | 0.00 | 68 | 1012.0 |
| 20260502030247 | 48 | 0 | 0.0 | 0.0 | 0.00 | 0.00 | 0.00 | 70 | 1012.0 |
| 20260502025748 | 48 | 0 | 0.0 | 0.0 | 0.00 | 0.00 | 0.00 | 70 | 1012.0 |
| 20260502025246 | 48 | 0 | 0.0 | 0.0 | 0.00 | 0.00 | 0.00 | 68 | 1012.0 |
| 20260502024746 | 48 | 0 | 0.0 | 0.0 | 0.00 | 0.00 | 0.00 | 68 | 1012.0 |
| 20260502024246 | 48 | 0 | 0.0 | 0.0 | 0.00 | 0.00 | 0.00 | 67 | 1012.0 |
| 20260502023746 | 48 | 0 | 0.0 | 0.0 | 0.00 | 0.00 | 0.00 | 67 | 1012.0 |
| 20260502023246 | 48 | 0 | 0.0 | 0.0 | 0.00 | 0.00 | 0.00 | 69 | 1012.0 |
| 20260502022746 | 48 | 0 | 0.0 | 0.0 | 0.00 | 0.00 | 0.00 | 71 | 1012.0 |
| 20260502022246 | 49 | 0 | 0.0 | 0.0 | 0.00 | 0.00 | 0.00 | 66 | 1012.0 |
| 20260502021747 | 49 | 0 | 0.0 | 0.0 | 0.00 | 0.00 | 0.00 | 67 | 1012.0 |
| 20260502021246 | 48 | 0 | 0.0 | 0.0 | 0.00 | 0.00 | 0.00 | 70 | 1012.0 |
| 20260502020746 | 48 | 0 | 0.0 | 0.0 | 0.00 | 0.00 | 0.00 | 68 | 1012.0 |
| 20260502020246 | 48 | 0 | 0.0 | 0.0 | 0.00 | 0.00 | 0.00 | 68 | 1011.0 |
| 20260502015747 | 48 | 0 | 0.0 | 0.0 | 0.00 | 0.00 | 0.00 | 67 | 1011.0 |
| 20260502015246 | 48 | 0 | 0.0 | 0.0 | 0.00 | 0.00 | 0.00 | 66 | 1011.0 |
| 20260502014746 | 48 | 0 | 0.0 | 0.0 | 0.00 | 0.00 | 0.00 | 66 | 1011.0 |
| 20260502014246 | 48 | 0 | 0.0 | 0.0 | 0.00 | 0.00 | 0.00 | 68 | 1011.0 |
| 20260502013746 | 48 | 0 | 0.0 | 0.0 | 0.00 | 0.00 | 0.00 | 64 | 1011.0 |
| 20260502013246 | 48 | 0 | 0.0 | 0.0 | 0.00 | 0.00 | 0.00 | 69 | 1011.0 |
| 20260502012746 | 48 | 0 | 0.0 | 0.0 | 0.00 | 0.00 | 0.00 | 63 | 1011.0 |
| 20260502012246 | 49 | 0 | 0.0 | 0.0 | 0.00 | 0.00 | 0.00 | 62 | 1011.0 |
| 20260502011746 | 49 | 0 | 0.0 | 0.0 | 0.00 | 0.00 | 0.00 | 61 | 1011.0 |
| 20260502011246 | 49 | 0 | 0.0 | 0.0 | 0.00 | 0.00 | 0.00 | 64 | 1011.0 |
| 20260502010746 | 49 | 0 | 0.0 | 0.0 | 0.00 | 0.00 | 0.00 | 65 | 1011.0 |
| 20260502010246 | 49 | 256 | 0.0 | 1.0 | 0.00 | 0.00 | 0.00 | 60 | 1011.0 |
| 20260502005746 | 49 | 0 | 0.0 | 0.0 | 0.00 | 0.00 | 0.00 | 59 | 1011.0 |
| 20260502005246 | 49 | 0 | 0.0 | 0.0 | 0.00 | 0.00 | 0.00 | 58 | 1011.0 |
| 20260502004746 | 50 | 0 | 0.0 | 0.0 | 0.00 | 0.00 | 0.00 | 60 | 1011.0 |
| 20260502004248 | 50 | 0 | 0.0 | 0.0 | 0.00 | 0.00 | 0.00 | 62 | 1011.0 |
| 20260502003746 | 50 | 0 | 0.0 | 0.0 | 0.00 | 0.00 | 0.00 | 58 | 1011.0 |
| 20260502003246 | 51 | 0 | 0.0 | 0.0 | 0.00 | 0.00 | 0.00 | 60 | 1011.0 |
| 20260502002746 | 51 | 0 | 0.0 | 0.0 | 0.00 | 0.00 | 0.00 | 57 | 1011.0 |
| 20260502002246 | 51 | 0 | 0.0 | 0.0 | 0.00 | 0.00 | 0.00 | 53 | 1011.0 |
| 20260502001747 | 51 | 0 | 0.0 | 0.0 | 0.00 | 0.00 | 0.00 | 54 | 1010.0 |
| 20260502001246 | 51 | 0 | 0.0 | 0.0 | 0.00 | 0.00 | 0.00 | 57 | 1010.0 |
| 20260502000747 | 52 | 0 | 0.0 | 0.0 | 0.00 | 0.00 | 0.00 | 54 | 1010.0 |
| 20260502000248 | 52 | 0 | 0.0 | 0.0 | 0.00 | 0.00 | 0.00 | 53 | 1010.0 |
| 20260501235746 | 52 | 0 | 0.0 | 0.0 | 0.00 | 0.00 | 0.00 | 51 | 1010.0 |
| 20260501235246 | 53 | 261 | 1.0 | 2.0 | 0.00 | 0.00 | 0.00 | 52 | 1010.0 |
| 20260501234746 | 53 | 0 | 0.0 | 0.0 | 0.00 | 0.00 | 0.00 | 54 | 1010.0 |
| 20260501234246 | 54 | 0 | 0.0 | 0.0 | 0.00 | 0.00 | 0.00 | 52 | 1010.0 |
| 20260501233746 | 54 | 0 | 0.0 | 0.0 | 0.00 | 0.00 | 0.00 | 52 | 1010.0 |
| 20260501233246 | 55 | 0 | 0.0 | 0.0 | 0.00 | 0.00 | 0.00 | 52 | 1010.0 |
| 20260501232746 | 56 | 0 | 0.0 | 0.0 | 0.00 | 0.00 | 0.00 | 47 | 1010.0 |
| 20260501232246 | 56 | 0 | 0.0 | 0.0 | 0.00 | 0.00 | 0.00 | 45 | 1010.0 |
| 20260501231746 | 57 | 0 | 0.0 | 0.0 | 0.00 | 0.00 | 0.00 | 45 | 1010.0 |
| 20260501231246 | 57 | 0 | 0.0 | 0.0 | 0.00 | 0.00 | 0.00 | 45 | 1010.0 |
| 20260501230746 | 58 | 252 | 0.0 | 2.0 | 0.00 | 0.00 | 0.00 | 44 | 1010.0 |
| 20260501230246 | 58 | 0 | 0.0 | 0.0 | 0.00 | 0.00 | 0.00 | 40 | 1009.0 |
| 20260501225748 | 58 | 286 | 0.0 | 1.0 | 0.00 | 0.00 | 0.00 | 39 | 1009.0 |
| 20260501225246 | 58 | 251 | 0.0 | 2.0 | 0.00 | 0.00 | 0.00 | 39 | 1009.0 |
| 20260501224746 | 58 | 301 | 0.0 | 1.0 | 0.00 | 0.00 | 0.00 | 38 | 1009.0 |
| 20260501224246 | 58 | 0 | 0.0 | 0.0 | 0.00 | 0.00 | 0.00 | 42 | 1009.0 |
| 20260501223748 | 59 | 0 | 0.0 | 0.0 | 0.00 | 0.00 | 0.00 | 41 | 1009.0 |
| 20260501223247 | 59 | 0 | 0.0 | 0.0 | 0.00 | 0.00 | 0.00 | 40 | 1009.0 |
| 20260501222747 | 59 | 324 | 0.0 | 1.0 | 0.00 | 0.00 | 0.00 | 37 | 1009.0 |
| 20260501222246 | 59 | 295 | 1.0 | 2.0 | 0.00 | 0.00 | 0.00 | 37 | 1009.0 |
| 20260501221747 | 60 | 271 | 1.0 | 2.0 | 0.00 | 0.00 | 0.00 | 37 | 1009.0 |
| 20260501221247 | 60 | 337 | 1.0 | 2.0 | 0.00 | 0.00 | 0.00 | 37 | 1009.0 |
| 20260501220746 | 60 | 330 | 0.0 | 2.0 | 0.00 | 0.00 | 0.00 | 38 | 1009.0 |
| 20260501220246 | 60 | 359 | 0.0 | 2.0 | 0.00 | 0.00 | 0.00 | 38 | 1009.0 |
| 20260501215248 | 60 | 229 | 1.0 | 3.0 | 0.00 | 0.00 | 0.00 | 36 | 1009.0 |
| 20260501214746 | 60 | 269 | 1.0 | 3.0 | 0.00 | 0.00 | 0.00 | 36 | 1009.0 |
| 20260501214246 | 60 | 237 | 1.0 | 2.0 | 0.00 | 0.00 | 0.00 | 36 | 1009.0 |
| 20260501213746 | 60 | 13 | 0.0 | 1.0 | 0.00 | 0.00 | 0.00 | 36 | 1009.0 |
| 20260501213247 | 60 | 274 | 2.0 | 3.0 | 0.00 | 0.00 | 0.00 | 36 | 1009.0 |
| 20260501212746 | 60 | 291 | 1.0 | 2.0 | 0.00 | 0.00 | 0.00 | 36 | 1009.0 |
| 20260501212246 | 61 | 291 | 2.0 | 4.0 | 0.00 | 0.00 | 0.00 | 35 | 1009.0 |
| 20260501211747 | 61 | 280 | 0.0 | 1.0 | 0.00 | 0.00 | 0.00 | 36 | 1009.0 |
| 20260501211246 | 60 | 334 | 1.0 | 2.0 | 0.00 | 0.00 | 0.00 | 36 | 1009.0 |
| 20260501210746 | 61 | 246 | 3.0 | 5.0 | 0.00 | 0.00 | 0.00 | 35 | 1009.0 |
| 20260501210246 | 60 | 281 | 1.0 | 3.0 | 0.00 | 0.00 | 0.00 | 37 | 1009.0 |
| 20260501205746 | 61 | 230 | 3.0 | 5.0 | 0.00 | 0.00 | 0.00 | 36 | 1009.0 |
| 20260501205246 | 60 | 266 | 0.0 | 1.0 | 0.00 | 0.00 | 0.00 | 37 | 1009.0 |
| 20260501204746 | 61 | 344 | 1.0 | 4.0 | 0.00 | 0.00 | 0.00 | 36 | 1009.0 |
| 20260501204249 | 61 | 7 | 2.0 | 4.0 | 0.00 | 0.00 | 0.00 | 37 | 1009.0 |
| 20260501203747 | 61 | 309 | 1.0 | 2.0 | 0.00 | 0.00 | 0.00 | 37 | 1009.0 |
| 20260501203246 | 61 | 236 | 1.0 | 2.0 | 0.00 | 0.00 | 0.00 | 37 | 1009.0 |
| 20260501202746 | 60 | 345 | 2.0 | 4.0 | 0.00 | 0.00 | 0.00 | 38 | 1009.0 |
| 20260501202246 | 60 | 33 | 2.0 | 3.0 | 0.00 | 0.00 | 0.00 | 38 | 1009.0 |
| 20260501201746 | 61 | 177 | 4.0 | 5.0 | 0.00 | 0.00 | 0.00 | 38 | 1009.0 |
| 20260501201246 | 62 | 155 | 3.0 | 5.0 | 0.00 | 0.00 | 0.00 | 37 | 1009.0 |
| 20260501200747 | 61 | 220 | 1.0 | 3.0 | 0.00 | 0.00 | 0.00 | 38 | 1009.0 |
| 20260501200246 | 61 | 30 | 3.0 | 5.0 | 0.00 | 0.00 | 0.00 | 37 | 1009.0 |
| 20260501195746 | 61 | 19 | 2.0 | 3.0 | 0.00 | 0.00 | 0.00 | 37 | 1009.0 |
| 20260501195247 | 61 | 255 | 0.0 | 1.0 | 0.00 | 0.00 | 0.00 | 37 | 1009.0 |
| 20260501194747 | 61 | 179 | 1.0 | 3.0 | 0.00 | 0.00 | 0.00 | 37 | 1009.0 |
| 20260501194246 | 61 | 318 | 1.0 | 4.0 | 0.00 | 0.00 | 0.00 | 39 | 1009.0 |
| 20260501193746 | 60 | 244 | 3.0 | 5.0 | 0.00 | 0.00 | 0.00 | 38 | 1009.0 |
| 20260501193246 | 60 | 337 | 2.0 | 3.0 | 0.00 | 0.00 | 0.00 | 39 | 1009.0 |
| 20260501192746 | 60 | 285 | 0.0 | 1.0 | 0.00 | 0.00 | 0.00 | 38 | 1009.0 |
| 20260501192246 | 60 | 245 | 3.0 | 4.0 | 0.00 | 0.00 | 0.00 | 38 | 1009.0 |
| 20260501191746 | 60 | 188 | 1.0 | 3.0 | 0.00 | 0.00 | 0.00 | 39 | 1009.0 |
| 20260501191246 | 60 | 211 | 2.0 | 4.0 | 0.00 | 0.00 | 0.00 | 40 | 1009.0 |
| 20260501190747 | 60 | 311 | 2.0 | 5.0 | 0.00 | 0.00 | 0.00 | 39 | 1009.0 |
| 20260501190246 | 60 | 317 | 0.0 | 2.0 | 0.00 | 0.00 | 0.00 | 39 | 1009.0 |
| 20260501185747 | 60 | 349 | 2.0 | 2.0 | 0.00 | 0.00 | 0.00 | 39 | 1009.0 |
| 20260501185246 | 61 | 183 | 1.0 | 3.0 | 0.00 | 0.00 | 0.00 | 39 | 1009.0 |
| 20260501184746 | 61 | 0 | 0.0 | 0.0 | 0.00 | 0.00 | 0.00 | 38 | 1009.0 |
| 20260501184248 | 61 | 234 | 1.0 | 3.0 | 0.00 | 0.00 | 0.00 | 39 | 1010.0 |
| 20260501183747 | 61 | 231 | 3.0 | 5.0 | 0.00 | 0.00 | 0.00 | 37 | 1010.0 |
| 20260501183247 | 61 | 326 | 4.0 | 8.0 | 0.00 | 0.00 | 0.00 | 38 | 1010.0 |
| 20260501182746 | 61 | 280 | 2.0 | 6.0 | 0.00 | 0.00 | 0.00 | 39 | 1010.0 |
| 20260501182246 | 60 | 136 | 1.0 | 3.0 | 0.00 | 0.00 | 0.00 | 40 | 1010.0 |
| 20260501181746 | 60 | 335 | 1.0 | 3.0 | 0.00 | 0.00 | 0.00 | 41 | 1010.0 |
| 20260501181247 | 60 | 266 | 3.0 | 8.0 | 0.00 | 0.00 | 0.00 | 40 | 1010.0 |
| 20260501180746 | 60 | 10 | 1.0 | 4.0 | 0.00 | 0.00 | 0.00 | 41 | 1010.0 |
| 20260501180246 | 60 | 250 | 3.0 | 4.0 | 0.00 | 0.00 | 0.00 | 39 | 1010.0 |
| 20260501175746 | 59 | 235 | 2.0 | 4.0 | 0.00 | 0.00 | 0.00 | 39 | 1010.0 |
| 20260501175246 | 59 | 8 | 2.0 | 4.0 | 0.00 | 0.00 | 0.00 | 40 | 1010.0 |
| 20260501174746 | 59 | 345 | 1.0 | 4.0 | 0.00 | 0.00 | 0.00 | 40 | 1010.0 |
| 20260501174246 | 59 | 336 | 2.0 | 4.0 | 0.00 | 0.00 | 0.00 | 41 | 1010.0 |
| 20260501173747 | 59 | 245 | 2.0 | 3.0 | 0.00 | 0.00 | 0.00 | 41 | 1010.0 |
| 20260501173246 | 58 | 293 | 0.0 | 2.0 | 0.00 | 0.00 | 0.00 | 40 | 1010.0 |
| 20260501172746 | 58 | 244 | 2.0 | 5.0 | 0.00 | 0.00 | 0.00 | 40 | 1010.0 |
| 20260501172248 | 58 | 334 | 0.0 | 3.0 | 0.00 | 0.00 | 0.00 | 44 | 1010.0 |
| 20260501171747 | 58 | 357 | 2.0 | 3.0 | 0.00 | 0.00 | 0.00 | 44 | 1010.0 |
| 20260501171248 | 59 | 111 | 0.0 | 2.0 | 0.00 | 0.00 | 0.00 | 42 | 1010.0 |
| 20260501170747 | 59 | 0 | 1.0 | 2.0 | 0.00 | 0.00 | 0.00 | 44 | 1010.0 |
| 20260501170246 | 59 | 199 | 4.0 | 6.0 | 0.00 | 0.00 | 0.00 | 42 | 1010.0 |
| 20260501165747 | 59 | 256 | 2.0 | 4.0 | 0.00 | 0.00 | 0.00 | 41 | 1010.0 |
| 20260501165246 | 59 | 345 | 2.0 | 4.0 | 0.00 | 0.00 | 0.00 | 45 | 1010.0 |
| 20260501164746 | 58 | 334 | 1.0 | 4.0 | 0.00 | 0.00 | 0.00 | 47 | 1010.0 |
| 20260501164246 | 57 | 287 | 2.0 | 6.0 | 0.00 | 0.00 | 0.00 | 47 | 1010.0 |
| 20260501163746 | 57 | 43 | 2.0 | 4.0 | 0.00 | 0.00 | 0.00 | 45 | 1010.0 |
| 20260501163246 | 56 | 334 | 2.0 | 5.0 | 0.00 | 0.00 | 0.00 | 47 | 1010.0 |
| 20260501162747 | 57 | 333 | 2.0 | 5.0 | 0.00 | 0.00 | 0.00 | 47 | 1010.0 |
| 20260501162246 | 56 | 3 | 3.0 | 4.0 | 0.00 | 0.00 | 0.00 | 46 | 1010.0 |
| 20260501161746 | 56 | 6 | 1.0 | 3.0 | 0.00 | 0.00 | 0.00 | 47 | 1010.0 |
| 20260501161247 | 56 | 307 | 1.0 | 2.0 | 0.00 | 0.00 | 0.00 | 49 | 1010.0 |
| 20260501160746 | 56 | 348 | 3.0 | 6.0 | 0.00 | 0.00 | 0.00 | 48 | 1010.0 |
| 20260501160247 | 55 | 153 | 3.0 | 6.0 | 0.00 | 0.00 | 0.00 | 49 | 1011.0 |
| 20260501155746 | 56 | 11 | 1.0 | 2.0 | 0.00 | 0.00 | 0.00 | 50 | 1011.0 |
| 20260501155247 | 56 | 333 | 2.0 | 4.0 | 0.00 | 0.00 | 0.00 | 50 | 1011.0 |
| 20260501154747 | 55 | 342 | 2.0 | 4.0 | 0.00 | 0.00 | 0.00 | 51 | 1011.0 |
| 20260501154250 | 54 | 348 | 1.0 | 2.0 | 0.00 | 0.00 | 0.00 | 52 | 1011.0 |
| 20260501153746 | 54 | 69 | 0.0 | 2.0 | 0.00 | 0.00 | 0.00 | 53 | 1011.0 |
| 20260501153246 | 54 | 336 | 2.0 | 4.0 | 0.00 | 0.00 | 0.00 | 54 | 1011.0 |
| 20260501152747 | 55 | 5 | 3.0 | 6.0 | 0.00 | 0.00 | 0.00 | 52 | 1011.0 |
| 20260501152247 | 54 | 302 | 1.0 | 3.0 | 0.00 | 0.00 | 0.00 | 55 | 1011.0 |
| 20260501151747 | 53 | 313 | 1.0 | 3.0 | 0.00 | 0.00 | 0.00 | 55 | 1011.0 |
| 20260501151246 | 54 | 7 | 5.0 | 8.0 | 0.00 | 0.00 | 0.00 | 55 | 1011.0 |
| 20260501150746 | 54 | 10 | 2.0 | 4.0 | 0.00 | 0.00 | 0.00 | 56 | 1011.0 |
| 20260501150247 | 53 | 13 | 2.0 | 4.0 | 0.00 | 0.00 | 0.00 | 56 | 1011.0 |
| 20260501145747 | 53 | 255 | 2.0 | 3.0 | 0.00 | 0.00 | 0.00 | 59 | 1011.0 |
| 20260501145247 | 53 | 20 | 1.0 | 2.0 | 0.00 | 0.00 | 0.00 | 61 | 1011.0 |
| 20260501144746 | 53 | 260 | 1.0 | 3.0 | 0.00 | 0.00 | 0.00 | 60 | 1011.0 |
| 20260501144247 | 53 | 164 | 2.0 | 5.0 | 0.00 | 0.00 | 0.00 | 61 | 1011.0 |
| 20260501143746 | 52 | 15 | 1.0 | 3.0 | 0.00 | 0.00 | 0.00 | 62 | 1011.0 |
| 20260501143246 | 52 | 307 | 1.0 | 2.0 | 0.00 | 0.00 | 0.00 | 62 | 1011.0 |
| 20260501142747 | 52 | 283 | 1.0 | 2.0 | 0.00 | 0.00 | 0.00 | 62 | 1011.0 |
| 20260501142247 | 52 | 278 | 2.0 | 4.0 | 0.00 | 0.00 | 0.00 | 64 | 1011.0 |
| 20260501141746 | 52 | 0 | 2.0 | 3.0 | 0.00 | 0.00 | 0.00 | 64 | 1011.0 |